FW7405 Weather Reports


Display with metric or nautical units.
time (UTC)temp
F
wind
direction
speed
MPH
gust
MPH
rain 1hr
in
rain 24hr
in
rain mn
in
humidity
%
barometer
mb
20231206235248 36 177 8.0 11.0 0.00 0.00 0.00 90 1017.1
20231206234747 36 177 8.0 11.0 0.00 0.00 0.00 90 1017.1
20231206234246 36 158 9.0 10.0 0.00 0.00 0.00 90 1017.5
20231206233745 36 158 9.0 10.0 0.00 0.00 0.00 90 1017.5
20231206233243 35 169 5.0 6.0 0.00 0.00 0.00 90 1017.5
20231206232741 35 171 5.0 6.0 0.00 0.00 0.00 90 1017.5
20231206232238 35 171 5.0 6.0 0.00 0.00 0.00 90 1017.5
20231206231737 35 169 5.0 7.0 0.00 0.00 0.00 90 1017.5
20231206231236 35 184 4.0 6.0 0.00 0.00 0.00 90 1017.8
20231206230735 35 184 4.0 6.0 0.00 0.00 0.00 90 1017.5
20231206230232 0 0.0 0.0 0.00 0.00 0.00 1017.8
20231206225729 36 181 5.0 7.0 0.00 0.00 0.00 89 1017.8
20231206225227 36 181 5.0 7.0 0.00 0.00 0.00 89 1017.5
20231206224725 36 162 6.0 9.0 0.00 0.00 0.00 88 1017.8
20231206224224 36 148 4.0 4.0 0.00 0.00 0.00 88 1017.8
20231206223723 36 164 4.0 4.0 0.00 0.00 0.00 88 1017.8
20231206223223 37 186 5.0 7.0 0.00 0.00 0.00 88 1017.8
20231206222722 37 201 4.0 4.0 0.00 0.00 0.00 88 1018.1
20231206222220 37 194 6.0 7.0 0.00 0.00 0.00 88 1017.8
20231206221718 37 185 5.0 6.0 0.00 0.00 0.00 87 1018.1
20231206221217 37 165 8.0 10.0 0.00 0.00 0.00 86 1018.1
20231206220716 37 165 8.0 10.0 0.00 0.00 0.00 86 1018.1
20231206220216 37 167 6.0 10.0 0.00 0.00 0.00 86 1018.1
20231206215715 37 207 4.0 4.0 0.00 0.00 0.00 86 1018.1
20231206215214 37 182 6.0 7.0 0.00 0.00 0.00 85 1018.1
20231206214712 38 170 6.0 7.0 0.00 0.00 0.00 85 1018.1
20231206214212 38 150 5.0 7.0 0.00 0.00 0.00 85 1018.1
20231206213710 37 155 4.0 7.0 0.00 0.00 0.00 85 1018.1
20231206213209 37 127 4.0 6.0 0.00 0.00 0.00 85 1018.1
20231206212708 37 164 6.0 7.0 0.00 0.00 0.00 85 1018.5
20231206212207 37 182 6.0 7.0 0.00 0.00 0.00 85 1018.1
20231206211706 37 168 11.0 14.0 0.00 0.00 0.00 85 1018.1
20231206211206 37 173 4.0 6.0 0.00 0.00 0.00 85 1018.1
20231206210704 37 168 10.0 14.0 0.00 0.00 0.00 84 1018.5
20231206210204 37 185 5.0 7.0 0.00 0.00 0.00 85 1018.8
20231206205704 37 190 3.0 6.0 0.00 0.00 0.00 84 1018.8
20231206205202 37 188 6.0 10.0 0.00 0.00 0.00 84 1018.8
20231206204701 37 194 6.0 9.0 0.00 0.00 0.00 84 1019.2
20231206204159 37 217 5.0 6.0 0.00 0.00 0.00 84 1019.2
20231206203657 37 183 7.0 11.0 0.00 0.00 0.00 85 1019.2
20231206203156 37 128 7.0 10.0 0.00 0.00 0.00 84 1019.5
20231206202654 37 177 5.0 7.0 0.00 0.00 0.00 84 1019.5
20231206202154 37 199 5.0 6.0 0.00 0.00 0.00 84 1019.5
20231206201652 37 158 7.0 9.0 0.00 0.00 0.00 84 1019.5
20231206201151 37 191 5.0 6.0 0.00 0.00 0.00 83 1019.5
20231206200650 37 211 7.0 10.0 0.00 0.00 0.00 82 1019.8
20231206200149 37 172 7.0 10.0 0.00 0.00 0.00 82 1019.8
20231206195647 37 217 4.0 4.0 0.00 0.00 0.00 82 1019.8
20231206195146 37 195 8.0 10.0 0.00 0.00 0.00 81 1019.8
20231206194646 37 195 8.0 10.0 0.00 0.00 0.00 81 1019.8
20231206194145 37 177 11.0 14.0 0.00 0.00 0.00 82 1020.2
20231206193644 36 184 7.0 10.0 0.00 0.00 0.00 83 1020.2
20231206193143 37 170 5.0 7.0 0.00 0.00 0.00 83 1020.5
20231206192642 36 216 5.0 7.0 0.00 0.00 0.00 83 1020.5
20231206192141 36 179 3.0 6.0 0.00 0.00 0.00 83 1020.5
20231206191639 36 170 4.0 4.0 0.00 0.00 0.00 84 1020.5
20231206191138 36 162 7.0 9.0 0.00 0.00 0.00 84 1021.0
20231206190637 36 187 9.0 10.0 0.00 0.00 0.00 83 1020.5
20231206190136 36 205 5.0 7.0 0.00 0.00 0.00 83 1021.0
20231206185636 37 165 4.0 7.0 0.00 0.00 0.00 82 1021.0
20231206185134 38 174 6.0 7.0 0.00 0.00 0.00 81 1021.0
20231206184631 38 130 5.0 9.0 0.00 0.00 0.00 81 1021.3
20231206184128 37 158 7.0 10.0 0.00 0.00 0.00 82 1021.3
20231206183626 37 216 5.0 7.0 0.00 0.00 0.00 82 1021.3
20231206183125 37 179 4.0 6.0 0.00 0.00 0.00 82 1021.3
20231206182623 37 170 7.0 9.0 0.00 0.00 0.00 81 1021.6
20231206182122 38 273 1.0 1.0 0.00 0.00 0.00 81 1022.0
20231206181620 37 199 2.0 3.0 0.00 0.00 0.00 81 1021.6
20231206181120 37 198 6.0 7.0 0.00 0.00 0.00 81 1022.0
20231206180619 37 158 5.0 7.0 0.00 0.00 0.00 79 1022.0
20231206180118 38 219 9.0 11.0 0.00 0.00 0.00 81 1022.3
20231206175617 38 173 5.0 6.0 0.00 0.00 0.00 80 1022.3
20231206175114 38 184 5.0 7.0 0.00 0.00 0.00 80 1022.3
20231206174614 37 165 2.0 3.0 0.00 0.00 0.00 80 1022.3
20231206174113 37 194 3.0 4.0 0.00 0.00 0.00 79 1022.3
20231206173612 36 294 1.0 1.0 0.00 0.00 0.00 81 1022.6
20231206173112 36 227 6.0 9.0 0.00 0.00 0.00 80 1022.6
20231206172611 37 200 5.0 7.0 0.00 0.00 0.00 80 1022.6
20231206172109 0 0.0 0.0 0.00 0.00 0.00 1023.0
20231206171609 0 0.0 0.0 0.00 0.00 0.00 1023.0
20231206171107 0 0.0 0.0 0.00 0.00 0.00 1023.3
20231206170607 0 0.0 0.0 0.00 0.00 0.00 1023.3
20231206170106 0 0.0 0.0 0.00 0.00 0.00 1023.3
20231206165606 0 0.0 0.0 0.00 0.00 0.00 1023.3
20231206165104 0 0.0 0.0 0.00 0.00 0.00 1023.3
20231206164603 0 0.0 0.0 0.00 0.00 0.00 1023.3
20231206164102 35 77 0.0 0.0 0.00 0.00 0.00 82 1023.3
20231206163601 35 77 0.0 0.0 0.00 0.00 0.00 82 1023.7
20231206163100 35 43 2.0 3.0 0.00 0.00 0.00 81 1023.7
20231206162558 35 151 5.0 7.0 0.00 0.00 0.00 81 1023.7
20231206162058 37 217 3.0 4.0 0.00 0.00 0.00 80 1024.0
20231206161556 37 271 1.0 3.0 0.00 0.00 0.00 80 1024.0
20231206161055 37 260 0.0 1.0 0.00 0.00 0.00 80 1024.0
20231206160553 37 238 1.0 3.0 0.00 0.00 0.00 80 1024.0
20231206160053 36 308 2.0 3.0 0.00 0.00 0.00 81 1024.0
20231206155551 37 286 0.0 0.0 0.00 0.00 0.00 81 1024.0
20231206155051 37 314 2.0 3.0 0.00 0.00 0.00 80 1024.0
20231206154551 37 278 2.0 3.0 0.00 0.00 0.00 81 1024.0
20231206154052 35 315 0.0 1.0 0.00 0.00 0.00 83 1024.0
20231206153551 34 174 3.0 4.0 0.00 0.00 0.00 85 1024.0
20231206153050 34 265 2.0 3.0 0.00 0.00 0.00 86 1023.7
20231206152549 34 250 0.0 1.0 0.00 0.00 0.00 86 1023.7
20231206152047 35 230 2.0 3.0 0.00 0.00 0.00 86 1023.7
20231206151547 35 186 3.0 4.0 0.00 0.00 0.00 86 1023.7
20231206151046 34 294 1.0 1.0 0.00 0.00 0.00 87 1023.7
20231206150545 34 231 2.0 3.0 0.00 0.00 0.00 87 1023.7
20231206150045 34 298 1.0 1.0 0.00 0.00 0.00 88 1023.7
20231206145544 34 292 0.0 1.0 0.00 0.00 0.00 89 1023.3
20231206145043 34 292 0.0 1.0 0.00 0.00 0.00 89 1023.3
20231206144542 0 0.0 0.0 0.00 0.00 0.00 1023.0
20231206144040 0 0.0 0.0 0.00 0.00 0.00 1023.3
20231206143538 0 0.0 0.0 0.00 0.00 0.00 1023.3
20231206143037 0 0.0 0.0 0.00 0.00 0.00 1023.3
20231206142535 0 0.0 0.0 0.00 0.00 0.00 1023.3
20231206142033 0 0.0 0.0 0.00 0.00 0.00 1023.7
20231206141532 0 0.0 0.0 0.00 0.00 0.00 1023.3
20231206141031 0 0.0 0.0 0.00 0.00 0.00 1023.3
20231206140530 0 0.0 0.0 0.00 0.00 0.00 1023.3
20231206140029 0 0.0 0.0 0.00 0.00 0.00 1023.7
20231206135528 0 0.0 0.0 0.00 0.00 0.00 1023.7
20231206135027 0 0.0 0.0 0.00 0.00 0.00 1023.7
20231206134528 0 0.0 0.0 0.00 0.00 0.00 1023.7
20231206134026 0 0.0 0.0 0.00 0.00 0.00 1023.7
20231206133526 0 0.0 0.0 0.00 0.00 0.00 1023.7
20231206133026 0 0.0 0.0 0.00 0.00 0.00 1023.7
20231206132524 0 0.0 0.0 0.00 0.00 0.00 1023.7
20231206132023 0 0.0 0.0 0.00 0.00 0.00 1023.7
20231206131522 0 0.0 0.0 0.00 0.00 0.00 1023.3
20231206131020 0 0.0 0.0 0.00 0.00 0.00 1023.3
20231206130519 0 0.0 0.0 0.00 0.00 0.00 1023.3
20231206130018 33 296 0.0 0.0 0.00 0.00 0.00 85 1023.3
20231206125515 33 296 0.0 0.0 0.00 0.00 0.00 85 1023.3
20231206125015 0 0.0 0.0 0.00 0.00 0.00 1023.7
20231206124515 33 308 0.0 1.0 0.00 0.00 0.00 85 1023.3
20231206124013 33 308 0.0 1.0 0.00 0.00 0.00 85 1023.7
20231206123512 0 0.0 0.0 0.00 0.00 0.00 1023.7
20231206123012 33 285 0.0 0.0 0.00 0.00 0.00 84 1023.3
20231206122511 33 285 0.0 0.0 0.00 0.00 0.00 84 1023.3
20231206122010 0 0.0 0.0 0.00 0.00 0.00 1023.3
20231206121508 0 0.0 0.0 0.00 0.00 0.00 1023.0
20231206121006 33 297 0.0 0.0 0.00 0.00 0.00 83 1023.0
20231206120505 33 297 0.0 0.0 0.00 0.00 0.00 83 1023.0
20231206120004 33 281 2.0 3.0 0.00 0.00 0.00 83 1023.3
20231206115503 33 289 1.0 1.0 0.00 0.00 0.00 83 1023.3
20231206115002 33 307 1.0 1.0 0.00 0.00 0.00 83 1023.3
20231206114501 33 265 0.0 1.0 0.00 0.00 0.00 83 1023.3
20231206114000 33 323 0.0 0.0 0.00 0.00 0.00 85 1023.3
20231206113459 33 306 2.0 3.0 0.00 0.00 0.00 85 1023.3
20231206112957 33 291 0.0 0.0 0.00 0.00 0.00 85 1023.3
20231206112457 33 291 0.0 0.0 0.00 0.00 0.00 85 1023.0
20231206111956 0 0.0 0.0 0.00 0.00 0.00 1023.0
20231206111455 0 0.0 0.0 0.00 0.00 0.00 1023.0
20231206110953 0 0.0 0.0 0.00 0.00 0.00 1023.0
20231206110453 0 0.0 0.0 0.00 0.00 0.00 1022.6
20231206105952 0 0.0 0.0 0.00 0.00 0.00 1022.6
20231206105450 33 294 1.0 1.0 0.00 0.00 0.00 89 1022.6
20231206104949 33 294 1.0 1.0 0.00 0.00 0.00 89 1022.6
20231206104447 0 0.0 0.0 0.00 0.00 0.00 1022.6
20231206103946 0 0.0 0.0 0.00 0.00 0.00 1022.6
20231206103445 34 339 0.0 0.0 0.00 0.00 0.00 91 1022.6
20231206102943 34 339 0.0 0.0 0.00 0.00 0.00 91 1022.6
20231206102441 0 0.0 0.0 0.00 0.00 0.00 1022.6
20231206101940 34 299 1.0 1.0 0.00 0.00 0.00 91 1022.6
20231206101439 34 299 1.0 1.0 0.00 0.00 0.00 91 1022.6
20231206100937 34 289 0.0 0.0 0.00 0.00 0.00 91 1022.6
20231206100436 34 284 0.0 0.0 0.00 0.00 0.00 91 1022.6
20231206095935 34 260 0.0 0.0 0.00 0.00 0.00 91 1022.6
20231206095433 34 277 0.0 0.0 0.00 0.00 0.00 91 1022.6
20231206094932 34 280 1.0 1.0 0.00 0.00 0.00 91 1022.6
20231206094432 34 292 0.0 1.0 0.00 0.00 0.00 90 1022.6
20231206093930 34 292 0.0 1.0 0.00 0.00 0.00 90 1022.6
20231206093429 34 289 0.0 0.0 0.00 0.00 0.00 90 1022.6
20231206092929 34 285 0.0 0.0 0.00 0.00 0.00 90 1022.6
20231206092427 34 320 2.0 3.0 0.00 0.00 0.00 90 1023.0
20231206091923 0 0.0 0.0 0.00 0.00 0.00 1022.6
20231206091420 0 0.0 0.0 0.00 0.00 0.00 1022.6
20231206090921 34 258 0.0 1.0 0.00 0.00 0.00 90 1022.6
20231206090416 34 258 0.0 1.0 0.00 0.00 0.00 90 1022.6
20231206085916 0 0.0 0.0 0.00 0.00 0.00 1022.6
20231206085413 0 0.0 0.0 0.00 0.00 0.00 1022.3
20231206084912 0 0.0 0.0 0.00 0.00 0.00 1022.3
20231206084409 0 0.0 0.0 0.00 0.00 0.00 1022.3
20231206083907 0 0.0 0.0 0.00 0.00 0.00 1022.6
20231206083406 0 0.0 0.0 0.00 0.00 0.00 1022.6
20231206082905 0 0.0 0.0 0.00 0.00 0.00 1022.6
20231206082403 0 0.0 0.0 0.00 0.00 0.00 1022.6
20231206081902 0 0.0 0.0 0.00 0.00 0.00 1022.6
20231206081400 35 285 0.0 0.0 0.00 0.00 0.00 87 1022.3
20231206080859 35 285 0.0 0.0 0.00 0.00 0.00 87 1022.6
20231206080358 35 287 0.0 0.0 0.00 0.00 0.00 87 1022.3
20231206075857 35 311 1.0 3.0 0.00 0.00 0.00 85 1022.3
20231206075355 35 311 1.0 3.0 0.00 0.00 0.00 85 1022.6
20231206074854 35 305 2.0 3.0 0.00 0.00 0.00 85 1022.6
20231206074354 35 294 0.0 1.0 0.00 0.00 0.00 84 1022.3
20231206073853 35 292 0.0 1.0 0.00 0.00 0.00 83 1022.6
20231206073352 35 292 0.0 0.0 0.00 0.00 0.00 83 1022.6
20231206072852 35 292 0.0 0.0 0.00 0.00 0.00 83 1022.6
20231206072352 35 285 0.0 1.0 0.00 0.00 0.00 83 1022.6
20231206071851 35 286 0.0 0.0 0.00 0.00 0.00 83 1022.6
20231206071351 35 292 0.0 1.0 0.00 0.00 0.00 83 1022.6
20231206070851 35 283 1.0 3.0 0.00 0.00 0.00 82 1023.0
20231206070349 35 290 1.0 3.0 0.00 0.00 0.00 82 1023.0
20231206065849 35 296 2.0 3.0 0.00 0.00 0.00 82 1023.0
20231206065349 35 296 2.0 3.0 0.00 0.00 0.00 82 1023.3
20231206064848 0 0.0 0.0 0.00 0.00 0.00 1023.0
20231206064346 35 15 5.0 9.0 0.00 0.00 0.00 81 1023.0
20231206063845 35 15 5.0 9.0 0.00 0.00 0.00 81 1023.0
20231206063343 35 292 1.0 1.0 0.00 0.00 0.00 81 1023.0
20231206062840 35 306 5.0 6.0 0.00 0.00 0.00 81 1023.0
20231206062340 35 296 1.0 1.0 0.00 0.00 0.00 81 1023.0
20231206061840 35 312 3.0 3.0 0.00 0.00 0.00 81 1022.6
20231206061340 0 0.0 0.0 0.00 0.00 0.00 1022.6
20231206060840 35 294 2.0 3.0 0.00 0.00 0.00 80 1022.6
20231206060339 35 294 2.0 3.0 0.00 0.00 0.00 80 1022.6
20231206055839 35 304 2.0 3.0 0.00 0.05 0.05 80 1022.6
20231206055337 0 0.0 0.0 0.00 0.05 0.05 1022.3
20231206054836 35 290 3.0 4.0 0.00 0.05 0.05 81 1022.3
20231206054335 35 290 3.0 4.0 0.00 0.05 0.05 81 1022.6
20231206053835 0 0.0 0.0 0.00 0.05 0.05 1022.6
20231206053334 35 314 3.0 4.0 0.00 0.05 0.05 83 1022.6
20231206052832 35 314 3.0 4.0 0.00 0.05 0.05 83 1022.6
20231206052330 35 343 2.0 3.0 0.00 0.05 0.05 82 1022.3
20231206051829 35 292 1.0 1.0 0.00 0.05 0.05 82 1022.3
20231206051325 35 291 0.0 1.0 0.00 0.05 0.05 83 1022.3
20231206050823 35 291 0.0 1.0 0.00 0.05 0.05 83 1022.0
20231206050322 35 281 3.0 4.0 0.00 0.05 0.05 82 1022.0
20231206045822 35 316 2.0 3.0 0.00 0.05 0.05 83 1022.0
20231206045320 35 320 4.0 4.0 0.00 0.05 0.05 84 1022.0
20231206044820 35 298 2.0 3.0 0.00 0.05 0.05 84 1022.0
20231206044317 35 298 0.0 1.0 0.00 0.05 0.05 83 1021.6
20231206043817 35 288 2.0 3.0 0.00 0.05 0.05 84 1021.6
20231206043317 35 289 2.0 3.0 0.00 0.05 0.05 84 1021.3
20231206042817 35 309 2.0 3.0 0.00 0.05 0.05 84 1021.3
20231206042316 35 299 0.0 1.0 0.00 0.05 0.05 84 1021.3
20231206041815 35 357 4.0 6.0 0.00 0.05 0.05 84 1021.3
20231206041315 35 287 0.0 1.0 0.00 0.05 0.05 84 1021.0
20231206040814 35 286 0.0 0.0 0.00 0.05 0.05 84 1021.0
20231206040313 35 290 2.0 3.0 0.00 0.05 0.05 84 1021.0
20231206035812 35 305 1.0 1.0 0.00 0.05 0.05 84 1021.0
20231206035310 35 294 1.0 1.0 0.00 0.05 0.05 84 1021.0
20231206034810 35 305 1.0 1.0 0.00 0.05 0.05 84 1020.5
20231206034310 35 302 0.0 0.0 0.00 0.05 0.05 84 1020.5
20231206033809 35 336 2.0 3.0 0.00 0.05 0.05 84 1020.5
20231206033309 35 352 4.0 6.0 0.00 0.05 0.05 85 1021.0
20231206032807 35 294 1.0 1.0 0.00 0.05 0.05 85 1021.0
20231206032306 35 282 2.0 4.0 0.00 0.05 0.05 84 1021.0
20231206031804 35 262 5.0 7.0 0.00 0.05 0.05 84 1021.0
20231206031302 35 357 3.0 4.0 0.00 0.05 0.05 84 1021.0
20231206030801 35 349 4.0 6.0 0.00 0.05 0.05 84 1021.3
20231206030301 35 295 2.0 3.0 0.00 0.05 0.05 84 1021.0
20231206025800 35 325 6.0 9.0 0.00 0.05 0.05 84 1021.3
20231206025259 35 0 7.0 9.0 0.00 0.05 0.05 84 1021.3
20231206024758 35 358 6.0 9.0 0.00 0.05 0.05 84 1021.3
20231206024259 35 319 5.0 6.0 0.00 0.05 0.05 84 1021.0
20231206023757 35 337 2.0 3.0 0.00 0.05 0.05 84 1021.0
20231206023256 35 310 3.0 4.0 0.00 0.05 0.05 84 1021.0
20231206022755 35 326 2.0 4.0 0.00 0.05 0.05 84 1021.0
20231206022255 35 324 3.0 3.0 0.00 0.05 0.05 84 1021.0
20231206021755 35 290 4.0 4.0 0.00 0.05 0.05 84 1021.0
20231206021255 35 342 5.0 7.0 0.00 0.05 0.05 84 1021.0
20231206020753 35 10 6.0 7.0 0.00 0.05 0.05 84 1021.0
20231206020252 35 341 4.0 7.0 0.00 0.05 0.05 85 1021.0
20231206015751 35 293 4.0 6.0 0.00 0.05 0.05 85 1021.0
20231206015250 35 310 2.0 3.0 0.00 0.05 0.05 86 1020.5
20231206014749 35 292 3.0 4.0 0.00 0.05 0.05 86 1020.2
20231206014247 35 284 3.0 4.0 0.00 0.05 0.05 87 1020.2
20231206013747 35 319 5.0 9.0 0.00 0.05 0.05 87 1020.2
20231206013246 35 334 5.0 7.0 0.00 0.05 0.05 88 1020.2
20231206012745 34 330 1.0 1.0 0.00 0.05 0.05 88 1019.8
20231206012243 35 279 2.0 3.0 0.00 0.05 0.05 88 1019.8
20231206011743 0 0.0 0.0 0.00 0.05 0.05 1019.8
20231206011241 0 0.0 0.0 0.00 0.05 0.05 1019.8
20231206010741 0 0.0 0.0 0.00 0.05 0.05 1019.5
20231206010241 35 285 5.0 6.0 0.00 0.05 0.05 87 1019.5
20231206005739 35 285 5.0 6.0 0.00 0.05 0.05 87 1019.5
20231206005238 35 287 3.0 4.0 0.00 0.05 0.05 87 1019.5
20231206004737 36 295 1.0 1.0 0.00 0.05 0.05 87 1019.5
20231206004236 36 332 3.0 4.0 0.00 0.05 0.05 87 1019.5
20231206003735 36 303 5.0 7.0 0.00 0.05 0.05 87 1019.5
20231206003234 36 338 6.0 7.0 0.00 0.05 0.05 88 1019.5
20231206002735 36 337 3.0 4.0 0.00 0.05 0.05 88 1019.5
20231206002233 36 306 5.0 6.0 0.00 0.05 0.05 88 1019.5
20231206001732 36 290 3.0 6.0 0.00 0.05 0.05 88 1019.2
20231206001232 36 313 5.0 9.0 0.00 0.05 0.05 87 1019.5
20231206000733 36 320 4.0 6.0 0.00 0.05 0.05 88 1019.2
20231206000233 36 0 3.0 4.0 0.00 0.05 0.05 88 1019.2
20231205235731 36 337 3.0 7.0 0.00 0.05 0.05 88 1019.2